Other Public Products
Issued by NWS Grand Forks, ND

Home | Current Version | Previous Version | Text Only | Print | Product List | Glossary Off
Versions: 1 2 3 4 5 6 7 8 9 10 11 12 13 14 15 16 17 18 19 20 21 22 23 24 25 26 27 28 29 30 31 32 33 34 35 36 37 38 39 40 41 42 43 44 45 46 47 48 49 50

462
FPUS83 KFGF 281810
OPUFGF
PRAIRIE TO PINES WEATHER ROUNDUP
NATIONAL WEATHER SERVICE EASTERN NORTH DAKOTA/GRAND FORKS ND
100 PM CDT SAT MAY 28 2016

 **SATELLITE DATA USED TO AUGMENT SKY COVER AT AUTOMATED STATIONS**
 *****  WEATHER ACROSS EASTERN NORTH DAKOTA  *****

CITY           SKY/WX    TMP DP  RH WIND       PRES   REMARKS
GRAND FORKS    CLOUDY    70  54  56 N8        29.82F
6HR MIN TEMP:  62; 6HR MAX TEMP:  73;

GRAND FORKS AF PTSUNNY   72  55  54 NE6       29.83F
GRAND CITY NWS   N/A     70 N/A N/A NE14        N/A
BUXTON           N/A     70  58  64 NE12        N/A
DEVILS LAKE    CLOUDY    62  56  80 N6        29.89S
6HR MIN TEMP:  56; 6HR MAX TEMP:  62;

FARGO          MOSUNNY   71  56  58 N14       29.79F
6HR MIN TEMP:  61; 6HR MAX TEMP:  71;

WAHPETON ARPT  CLOUDY    68  50  52 N12G20    29.79S
$$

 *****  WEATHER ACROSS CENTRAL AND WESTERN NORTH DAKOTA  *****

CITY           SKY/WX    TMP DP  RH WIND       PRES   REMARKS
JAMESTOWN      CLOUDY    65  58  78 N8        29.85F
6HR MIN TEMP:  59; 6HR MAX TEMP:  66;

BISMARCK       PTSUNNY   68  54  60 NE3       29.87F
6HR MIN TEMP:  57; 6HR MAX TEMP:  69;

MINOT          CLOUDY    64  53  67 CALM      29.90S
6HR MIN TEMP:  56; 6HR MAX TEMP:  65;

MINOT AFB      CLOUDY    61  54  77 NE5       29.89S
6HR MIN TEMP:  53; 6HR MAX TEMP:  61;

GARRISON         N/A     62  54  74 E7        29.90S
6HR MIN TEMP:  56; 6HR MAX TEMP:  63;

WILLISTON      PTSUNNY   66  53  63 NE8       29.89S
6HR MIN TEMP:  55; 6HR MAX TEMP:  67;

DICKINSON      PTSUNNY   69  45  41 S5        29.85F
6HR MIN TEMP:  48; 6HR MAX TEMP:  71;

HETTINGER      PTSUNNY   73  48  41 VRB6      29.89S
6HR MIN TEMP:  45; 6HR MAX TEMP:  73;

$$

 *****  OTHER OBSERVATIONS NORTHEAST NORTH DAKOTA  *****

CITY           SKY/WX    TMP DP  RH WIND       PRES   REMARKS
WALHALLA       FAIR      64  64 100 N8        29.88S
LANGDON        MOCLDY    66  61  82 NE9       29.89S
CAVALIER       FAIR      68  59  73 NW9       29.86F
GRAFTON        MOCLDY    72  55  56 N5        29.86S
CANDO          NOT AVBL
FORT TOTTEN    NOT AVBL
ROLLA          CLOUDY    55  55 100 N8        29.92F
RUGBY          CLOUDY    59  55  88 N5        29.90S
 ***** THE ABOVE OBSERVATIONS ARE NON NWS ARE NOT QUALITY
        CONTROLLED AND MAY MIS-REPORT RAIN FOR SNOW...
$$

 *****  OTHER OBSERVATIONS SOUTHEAST NORTH DAKOTA *****

CITY           SKY/WX    TMP DP  RH WIND       PRES   REMARKS
COOPERSTOWN    NOT AVBL
VALLEY CITY    LGT RAIN  64  64 100 N7        29.86S
OAKES            N/A    N/A N/A N/A MISG        N/A
GWINNER        MOCLDY    70  57  64 N10       29.83S
SHEYENNE NWR     N/A     71  57  60 NE8       29.95S
BUFFALO          N/A     70  50  48 NE9         N/A
WYNDMERE         N/A     70  57  64 VRB7        N/A
 ***** THE ABOVE OBSERVATIONS ARE NON NWS ARE NOT QUALITY
       CONTROLLED AND MAY MIS-REPORT RAIN FOR SNOW...
$$

  *****  WEATHER ACROSS NORTHERN MINNESOTA  *****

CITY           SKY/WX    TMP DP  RH WIND       PRES   REMARKS
FLAG ISLAND    CLOUDY    61  57  88 N20       29.87S
WARROAD        MOSUNNY   64  61  88 NE10      29.86F
ROSEAU         CLOUDY    66  61  82 NE10      29.85S
HALLOCK        CLOUDY    72  55  56 CALM      29.84F
THF RVR FALLS  CLOUDY    66  52  59 NE12G20   29.84F
6HR MIN TEMP:  59; 6HR MAX TEMP:  66;

HALSTAD        NOT AVBL
FOSSTON        CLOUDY    59  57  94 NE8       29.83S
BAUDETTE       LGT RAIN  61  58  90 NE13      29.84S FOG
6HR MIN TEMP:  59; 6HR MAX TEMP:  63; 6HR PCP:  0.06;

WASKISH        CLOUDY    61  57  88 NE10      29.81F
CROOKSTON      PTSUNNY   68  54  60 NE12      29.83F
$$
  *****  WEATHER ACROSS CENTRAL AND WEST MINNESOTA  *****

CITY           SKY/WX    TMP DP  RH WIND       PRES   REMARKS
BEMIDJI        CLOUDY    60  55  84 NE8       29.81R
PARK RAPIDS    CLOUDY    62  54  74 VRB3      29.79S
6HR MIN TEMP:  57; 6HR MAX TEMP:  63;

WADENA         CLOUDY    61  54  77 N5        29.80S
DETROIT LAKES  CLOUDY    63  54  72 N6        29.81F
MOORHEAD       CLOUDY    66  57  72 N10       29.81S
FERGUS FALLS   PTSUNNY   66  54  63 NE7       29.76S
ELBOW LAKE     CLOUDY    65  55  70 NE3       29.79F
6HR MIN TEMP:  57; 6HR MAX TEMP:  66;

MORRIS MN      PTSUNNY   64  57  77 SW3       29.79S
STAPLES        CLOUDY    61  55  82 N8        29.80R
WHEATON        PTSUNNY   70  57  64 NW6       29.81S
$$
  *****  WEATHER ELSEWHERE ACROSS MINNESOTA  *****

CITY           SKY/WX    TMP DP  RH WIND       PRES   REMARKS
DULUTH         CLOUDY    53  51  93 N5        29.78F FOG
6HR MIN TEMP:  47; 6HR MAX TEMP:  55; 6HR PCP: TRACE;

INTRNTL FALLS  FOG       59  57  93 NE9       29.82F VSB 1
6HR MIN TEMP:  56; 6HR MAX TEMP:  61; 6HR PCP:  0.01;

ELY            CLOUDY    59  57  94 NE7       29.79S
CLOQUET        CLOUDY    54  52  94 CALM      29.79F FOG
BRAINERD       CLOUDY    59  56  89 NE3       29.80S
6HR MIN TEMP:  57; 6HR MAX TEMP:  60;

HIBBING        CLOUDY    59  58  96 SE6       29.79R FOG
6HR MIN TEMP:  54; 6HR MAX TEMP:  60; 6HR PCP: TRACE;

ALEXANDRIA     CLOUDY    63  55  75 CALM      29.81R
6HR MIN TEMP:  58; 6HR MAX TEMP:  63;

SAINT CLOUD    LGT RAIN  60  57  89 CALM      29.79S
6HR MIN TEMP:  56; 6HR MAX TEMP:  61; 6HR PCP: TRACE;

MINNEAPOLIS    CLOUDY    67  60  78 NW7       29.77S
6HR MIN TEMP:  61; 6HR MAX TEMP:  67; 6HR PCP: TRACE;

$$

  *****  WEATHER ACROSS SOUTH DAKOTA  *****

CITY           SKY/WX    TMP DP  RH WIND       PRES   REMARKS
SIOUX FALLS    CLOUDY    68  61  78 N14       29.76F
6HR MIN TEMP:  60; 6HR MAX TEMP:  70; 6HR PCP:  0.60;

BROOKINGS      RAIN      60  58  92 N7        29.80S
WATERTOWN      LGT RAIN  63  56  78 NE8       29.81S
6HR MIN TEMP:  60; 6HR MAX TEMP:  63; 6HR PCP:  0.03;

HURON          LGT RAIN  63  61  93 N7        29.80S
6HR MIN TEMP:  58; 6HR MAX TEMP:  64; 6HR PCP:  0.15;

SISSETON         N/A     69  54  58 VRB5      29.80R
ABERDEEN       CLOUDY    65  58  78 NE8       29.83S
6HR MIN TEMP:  60; 6HR MAX TEMP:  65; 6HR PCP: TRACE;

MITCHELL       LGT RAIN  63  61  93 NW12      29.80S
PIERRE         PTSUNNY   70  54  56 VRB5      29.84S
6HR MIN TEMP:  56; 6HR MAX TEMP:  71;

MOBRIDGE       CLOUDY    72  50  45 N6        29.84S
RAPID CITY     MOSUNNY   70  47  43 N6        29.91S
6HR MIN TEMP:  45; 6HR MAX TEMP:  71;

$$

  *****  SOME WEATHER IN NEARBY STATES *****

CITY           SKY/WX    TMP DP  RH WIND       PRES   REMARKS
GLASGOW MT     MOSUNNY   59  51  75 NW12      29.91S
6HR MIN TEMP:  52; 6HR MAX TEMP:  59; 6HR PCP:  0.15;

GREAT FALLS MT MOSUNNY   57  25  29 W17G25    29.98S
6HR MIN TEMP:  40; 6HR MAX TEMP:  58;

CHEYENNE WY    CLOUDY    63  34  33 W8G16     30.04S
6HR MIN TEMP:  45; 6HR MAX TEMP:  66;

SCOTTSBLUFF NE SUNNY     70  43  37 VRB3      29.96F
6HR MIN TEMP:  40; 6HR MAX TEMP:  71;

OMAHA NE       PTSUNNY   71  57  61 W16       29.78S
6HR MIN TEMP:  62; 6HR MAX TEMP:  72;

DES MOINES IA  HVY RAIN  66  61  84 SW12      29.79S
6HR MIN TEMP:  62; 6HR MAX TEMP:  73; 6HR PCP:  0.13;

DAVENPORT IA   SUNNY     79  66  64 S17       29.85S
6HR MIN TEMP:  67; 6HR MAX TEMP:  79;

CHICAGO IL     CLOUDY    75  65  70 SW16G22   29.92S
6HR MIN TEMP:  70; 6HR MAX TEMP:  76;

EAU CLAIRE WI  CLOUDY    71  63  75 SW7       29.75S
6HR MIN TEMP:  63; 6HR MAX TEMP:  74;

LA CROSSE WI   CLOUDY    75  64  68 S12       29.78S
6HR MIN TEMP:  66; 6HR MAX TEMP:  75; 6HR PCP: TRACE;

$$

  *****  SOME NATIONAL WEATHER *****

CITY           SKY/WX    TMP DP  RH WIND       PRES   REMARKS
LA GUARDIA NY  MOSUNNY   91  71  51 S10G18    30.09F HX  97        C1F1C2F2C3F3C4F4C5F5C6F6C7F7C8F8C9F9CaFaCbFbCcFcCdFdCe!



USA.gov is the U.S. government's official web portal to all federal, state and local government web resources and services.